Location: St Paul
(33.9360°N, 83.4200°W)
Time: 08:49:05
(UTC-05:00)

Cosmos 2218 Rocket - Pass Details

Date: 06 October 2017
Orbit: 957 x 1005 km, 82.9° (Epoch: 14 December)

Event Time Altitude Azimuth Distance (km) Brightness Sun altitude
Rises 20:23:30 0° 176° (S) 3,660 6.9 -15.9°
Reaches altitude 10° 20:26:02 10° 174° (S) 2,709 6.2 -16.4°
Maximum altitude 20:32:09 67° 93° (E) 1,045 3.9 -17.7°
Drops below altitude 10° 20:38:15 10° 12° (NNE) 2,698 6.3 -18.9°
Sets 20:40:46 0° 10° (N) 3,644 7.0 -19.5°
